Time,TemperatureF,DewpointF,PressureIn,WindDirection,WindDirectionDegrees,WindSpeedMPH,WindSpeedGustMPH,Humidity,HourlyPrecipIn,Conditions,Clouds,dailyrainin,SoftwareType,DateUTC
2013-04-10 15:51:00,27.0,18.0,-100.00,South,185,4.0,6.0,69,-99.99,,,-99.99,,2013-04-10 15:51:00,
2013-04-10 16:23:00,27.0,18.0,-100.00,South,185,4.0,6.0,69,-99.99,,,-99.99,,2013-04-10 16:23:00,
2013-04-10 16:32:00,27.0,18.0,-100.00,South,185,4.0,6.0,69,-99.99,,,-99.99,,2013-04-10 16:32:00,
2013-04-10 16:43:00,27.0,18.0,-100.00,South,185,4.0,6.0,69,-99.99,,,-99.99,,2013-04-10 16:43:00,
2013-04-10 16:51:00,34.0,19.0,-100.00,WSW,241,4.0,8.0,54,0.00,,,-99.99,,2013-04-10 16:51:00,
2013-04-10 17:12:00,34.0,19.0,-100.00,WSW,241,4.0,8.0,54,0.00,,,-99.99,,2013-04-10 17:12:00,
2013-04-10 17:22:00,34.0,19.0,-100.00,WSW,241,4.0,8.0,54,0.00,,,-99.99,,2013-04-10 17:22:00,
2013-04-10 17:33:00,34.0,19.0,-100.00,WSW,241,4.0,8.0,54,0.00,,,-99.99,,2013-04-10 17:33:00,
2013-04-10 17:42:00,34.0,19.0,-100.00,WSW,241,4.0,8.0,54,0.00,,,-99.99,,2013-04-10 17:42:00,
2013-04-10 17:51:00,37.0,16.0,-100.00,WSW,256,6.0,11.0,41,0.00,,,-99.99,,2013-04-10 17:51:00,
2013-04-10 18:12:00,37.0,16.0,-100.00,WSW,256,6.0,11.0,41,0.00,,,-99.99,,2013-04-10 18:12:00,
2013-04-10 18:22:00,37.0,16.0,-100.00,WSW,256,6.0,11.0,41,0.00,,,-99.99,,2013-04-10 18:22:00,
2013-04-10 18:32:00,37.0,16.0,-100.00,WSW,256,6.0,11.0,41,0.00,,,-99.99,,2013-04-10 18:32:00,
2013-04-10 18:42:00,37.0,16.0,-100.00,WSW,256,6.0,11.0,41,0.00,,,-99.99,,2013-04-10 18:42:00,
2013-04-10 18:51:00,41.0,19.0,-100.00,SW,235,8.0,16.0,40,0.00,,,-99.99,,2013-04-10 18:51:00,
2013-04-10 19:22:00,41.0,19.0,-100.00,SW,235,8.0,16.0,40,0.00,,,-99.99,,2013-04-10 19:22:00,
2013-04-10 19:32:00,41.0,19.0,-100.00,SW,235,8.0,16.0,40,0.00,,,-99.99,,2013-04-10 19:32:00,
2013-04-10 19:42:00,41.0,19.0,-100.00,SW,235,8.0,16.0,40,0.00,,,-99.99,,2013-04-10 19:42:00,
2013-04-10 19:51:00,42.0,19.0,-100.00,WSW,256,8.0,17.0,40,0.00,,,-99.99,,2013-04-10 19:51:00,
2013-04-10 20:23:00,42.0,19.0,-100.00,WSW,256,8.0,17.0,40,0.00,,,-99.99,,2013-04-10 20:23:00,
2013-04-10 20:32:00,42.0,19.0,-100.00,WSW,256,8.0,17.0,40,0.00,,,-99.99,,2013-04-10 20:32:00,
2013-04-10 20:42:00,42.0,19.0,-100.00,WSW,256,8.0,17.0,40,0.00,,,-99.99,,2013-04-10 20:42:00,
2013-04-10 20:51:00,43.0,22.0,-100.00,WSW,253,9.0,32.0,42,0.00,,,-99.99,,2013-04-10 20:51:00,
2013-04-10 21:22:00,43.0,22.0,-100.00,WSW,253,9.0,32.0,42,0.00,,,-99.99,,2013-04-10 21:22:00,
2013-04-10 21:32:00,43.0,22.0,-100.00,WSW,253,9.0,32.0,42,0.00,,,-99.99,,2013-04-10 21:32:00,
2013-04-10 21:42:00,43.0,22.0,-100.00,WSW,253,9.0,32.0,42,0.00,,,-99.99,,2013-04-10 21:42:00,
2013-04-10 21:51:00,43.0,23.0,-100.00,SW,221,13.0,22.0,45,0.00,,,-99.99,,2013-04-10 21:51:00,
2013-04-10 22:22:00,43.0,23.0,-100.00,SW,221,13.0,22.0,45,0.00,,,-99.99,,2013-04-10 22:22:00,
2013-04-10 22:33:00,43.0,23.0,-100.00,SW,221,13.0,22.0,45,0.00,,,-99.99,,2013-04-10 22:33:00,
2013-04-10 22:42:00,43.0,23.0,-100.00,SW,221,13.0,22.0,45,0.00,,,-99.99,,2013-04-10 22:42:00,
2013-04-10 22:51:00,48.0,23.0,-100.00,SW,230,13.0,25.0,37,0.00,,,-99.99,,2013-04-10 22:51:00,
2013-04-10 23:22:00,48.0,23.0,-100.00,SW,230,13.0,25.0,37,0.00,,,-99.99,,2013-04-10 23:22:00,
2013-04-10 23:32:00,48.0,23.0,-100.00,SW,230,13.0,25.0,37,0.00,,,-99.99,,2013-04-10 23:32:00,
2013-04-10 23:42:00,48.0,23.0,-100.00,SW,230,13.0,25.0,37,0.00,,,-99.99,,2013-04-10 23:42:00,
2013-04-10 23:51:00,47.0,23.0,-100.00,WSW,239,11.0,24.0,39,0.00,,,-99.99,,2013-04-10 23:51:00,